Miscellaneous Local Product
Issued by NWS Hastings, NE

Home | Current Version | Previous Version | Graphics & Text | Print | Product List | Glossary On
Versions: 1 2 3 4 5 6 7 8 9 10 11 12 13 14 15 16 17 18 19 20 21 22 23 24 25 26 27 28 29 30 31 32 33 34 35 36 37 38 39 40 41 42 43 44 45 46 47 48 49 50
000
AXUS43 KGID 210202
MISGRI

GID CWA HOURLY WEATHER ROUNDUP
NATIONAL WEATHER SERVICE HASTINGS NE
900 PM CDT WED SEP 20 2017

NOTE: "FAIR" INDICATES FEW OR NO CLOUDS BELOW 12,000 FEET WITH NO
SIGNIFICANT WEATHER AND/OR OBSTRUCTIONS TO VISIBILITY.

...SOUTH CENTRAL NEBRASKA...

CITY           SKY/WX    TMP DP  RH WIND       PRES   REMARKS
GRAND ISLAND   CLEAR     63  49  60 E7        29.90R
HASTINGS       CLEAR     62  48  60 E5        29.91R
KEARNEY        CLEAR     60  47  61 E8        29.90R
ORD            CLEAR     58  48  69 E3        29.89R
YORK           CLEAR     63  50  63 E7        29.90R
AURORA         CLEAR     58  49  73 E6        29.90R
LEXINGTON      CLEAR     65  45  47 SE7       29.90R
HOLDREGE       CLEAR     60  43  54 E5        29.90R
HEBRON         CLEAR     67  54  64 CALM      29.87R

...NEBRASKA PANHANDLE...

CITY           SKY/WX    TMP DP  RH WIND       PRES   REMARKS
CHADRON        PTCLDY    66  34  30 S10       29.78S
ALLIANCE       CLEAR     55  36  48 SE9       29.85R
SCOTTSBLUFF    CLEAR     60  39  45 E10       29.82R
SIDNEY         CLEAR     62  30  29 SE13      29.87S

...WESTERN AND NORTH CENTRAL NEBRASKA...

CITY           SKY/WX    TMP DP  RH WIND       PRES   REMARKS
VALENTINE      CLEAR     65  37  35 SE8       29.85R
AINSWORTH      CLEAR     58  42  54 SE8       29.88R
ONEILL         CLEAR     63  48  59 SE6       29.89R
BROKEN BOW     CLEAR     63  45  51 SE6       29.89R
IMPERIAL       CLEAR     56  34  43 SE7       29.88R
NORTH PLATTE   CLEAR     56  44  64 E9        29.89R
MCCOOK         CLEAR     63  38  39 E7        29.89R

...EASTERN NEBRASKA...

CITY           SKY/WX    TMP DP  RH WIND       PRES   REMARKS
NORFOLK        CLEAR     59  50  72 E3        29.90R
SO SIOUX CITY  CLEAR     58  53  84 NW3       29.89R
TEKAMAH        CLEAR     58  54  86 CALM      29.88R
COLUMBUS       CLEAR     60  52  74 E7        29.90R
ALBION         CLEAR     58  51  76 CALM      29.91R
OMAHA EPPLEY   CLEAR     66  55  67 N8        29.87R
OFFUTT AFB     CLEAR     68  51  54 N5        29.86R
MILLARD        CLEAR     72  52  49 CALM      29.87S
LINCOLN        CLEAR     64  52  64 NE8       29.89R
NEBRASKA CITY  CLEAR     69  59  69 N6        29.87R
BEATRICE       CLEAR     68  57  66 NE5       29.87R
FALLS CITY     MOCLDY    77  63  61 N5        29.83R

...NORTHERN KANSAS...

CITY           SKY/WX    TMP DP  RH WIND       PRES   REMARKS
GOODLAND       CLEAR     61  35  37 SE10      29.89S
HILL CITY      CLEAR     65  38  36 NE3       29.88R
NORTON         CLEAR     59  34  38 CALM      29.88R
PHILLIPSBURG   CLEAR     66  41  39 NE7       29.87S
SMITH CENTER   CLEAR     64  45  48 NE8       29.88R
HAYS           CLEAR     68  49  50 E9        29.86R
RUSSELL        CLEAR     68  53  58 NE6       29.84R
CONCORDIA      CLEAR     71  57  61 NE3       29.85R
SALINA         CLEAR     79  60  52 N3        29.82R
TOPEKA         MOCLDY    81  76  84 CALM      29.81R



USA.gov is the U.S. government's official web portal to all federal, state and local government web resources and services.